H1 CPF 2 NER 2024 1 13 9 013 01 glonass145 H2 2213001 9145 54031 2024 1 13 0 0 0 2024 1 16 23 45 0 900 1 1 0 0 0 1 H9 10 0 60322 0.00000 0 -14104693.513 -2316990.546 -21121916.291 10 0 60322 900.00000 0 -15717191.194 -4250328.265 -19632615.436 10 0 60322 1800.00000 0 -17327550.387 -5907457.274 -17761903.542 10 0 60322 2700.00000 0 -18873757.538 -7267645.613 -15546178.306 10 0 60322 3600.00000 0 -20292891.205 -8322879.609 -13028526.680 10 0 60322 4500.00000 0 -21523750.145 -9077929.098 -10257884.897 10 0 60322 5400.00000 0 -22509427.861 -9549877.046 -7288085.472 10 0 60322 6300.00000 0 -23199725.604 -9767134.989 -4176809.817 10 0 60322 7200.00000 0 -23553302.544 -9767987.242 -984466.968 10 0 60322 8100.00000 0 -23539472.833 -9598726.585 2226979.563 10 0 60322 9000.00000 0 -23139574.172 -9311461.162 5395213.897 10 0 60322 9900.00000 0 -22347850.413 -8961686.036 8458775.280 10 0 60322 10800.00000 0 -21171811.192 -8605722.520 11358247.522 10 0 60322 11700.00000 0 -19632053.425 -8298133.778 14037407.391 10 0 60322 12600.00000 0 -17761551.981 -8089225.921 16444309.915 10 0 60322 13500.00000 0 -15604448.860 -8022740.012 18532290.038 10 0 60322 14400.00000 0 -13214390.945 -8133832.243 20260861.775 10 0 60322 15300.00000 0 -10652484.975 -8447427.292 21596498.115 10 0 60322 16200.00000 0 -7984954.023 -8977014.269 22513277.257 10 0 60322 17100.00000 0 -5280591.925 -9723936.164 22993383.257 10 0 60322 18000.00000 0 -2608120.324 -10677203.212 23027451.819 10 0 60322 18900.00000 0 -33556.909 -11813838.835 22614754.694 10 0 60322 19800.00000 0 2382297.055 -13099744.759 21763219.037 10 0 60322 20700.00000 0 4586146.620 -14491050.280 20489280.899 10 0 60322 21600.00000 0 6534176.243 -15935890.420 18817575.040 10 0 60322 22500.00000 0 8193624.821 -17376539.712 16780466.165 10 0 60322 23400.00000 0 9543897.624 -18751813.140 14417429.723 10 0 60322 24300.00000 0 10577169.266 -19999634.242 11774293.300 10 0 60322 25200.00000 0 11298452.924 -21059662.929 8902352.495 10 0 60322 26100.00000 0 11725133.312 -21875872.501 5857377.864 10 0 60322 27000.00000 0 11885983.488 -22398967.061 2698531.917 10 0 60322 27900.00000 0 11819707.425 -22588536.803 -512782.777 10 0 60322 28800.00000 0 11573070.444 -22414859.380 -3714121.568 10 0 60322 29700.00000 0 11198697.264 -21860270.338 -6843217.933 10 0 60322 30600.00000 0 10752631.646 -20920043.691 -9839201.345 10 0 60322 31500.00000 0 10291761.844 -19602744.470 -12643788.252 10 0 60322 32400.00000 0 9871221.808 -17930037.456 -15202422.138 10 0 60322 33300.00000 0 9541879.073 -15935959.373 -17465339.841 10 0 60322 34200.00000 0 9348016.435 -13665684.540 -19388542.853 10 0 60322 35100.00000 0 9325306.159 -11173835.333 -20934654.493 10 0 60322 36000.00000 0 9499162.813 -8522407.886 -22073646.330 10 0 60322 36900.00000 0 9883544.670 -5778399.531 -22783419.913 10 0 60322 37800.00000 0 10480254.425 -3011236.733 -23050232.931 10 0 60322 38700.00000 0 11278768.870 -290110.399 -22868961.968 10 0 60322 39600.00000 0 12256604.739 2318670.908 -22243197.216 10 0 60322 40500.00000 0 13380205.400 4754200.321 -21185167.740 10 0 60322 41400.00000 0 14606311.125 6963260.605 -19715499.037 10 0 60322 42300.00000 0 15883755.379 8902286.439 -17862807.847 10 0 60322 43200.00000 0 17155611.647 10538920.541 -15663142.182 10 0 60322 44100.00000 0 18361600.604 11853100.184 -13159277.511 10 0 60322 45000.00000 0 19440656.408 12837630.210 -10399882.819 10 0 60322 45900.00000 0 20333544.192 13498220.279 -7438572.799 10 0 60322 46800.00000 0 20985418.642 13852986.399 -4332864.670 10 0 60322 47700.00000 0 21348215.951 13931439.286 -1143060.073 10 0 60322 48600.00000 0 21382778.459 13773003.590 2068926.047 10 0 60322 49500.00000 0 21060622.527 13425131.588 5240766.663 10 0 60322 50400.00000 0 20365275.204 12941091.903 8310930.455 10 0 60322 51300.00000 0 19293123.352 12377527.259 11219872.696 10 0 60322 52200.00000 0 17853739.375 11791884.734 13911186.222 10 0 60322 53100.00000 0 16069669.533 11239827.143 16332690.368 10 0 60322 54000.00000 0 13975693.237 10772734.612 18437437.215 10 0 60322 54900.00000 0 11617583.582 10435401.486 20184616.228 10 0 60322 55800.00000 0 9050420.067 10264025.265 21540340.388 10 0 60322 56700.00000 0 6336522.725 10284571.979 22478299.313 10 0 60322 57600.00000 0 3543092.470 10511586.621 22980267.291 10 0 60322 58500.00000 0 739654.457 10947498.743 23036456.868 10 0 60322 59400.00000 0 -2004590.693 11582452.718 22645711.301 10 0 60322 60300.00000 0 -4623399.181 12394670.443 21815532.100 10 0 60322 61200.00000 0 -7055991.681 13351332.115 20561940.692 10 0 60322 62100.00000 0 -9249333.305 14409939.120 18909176.265 10 0 60322 63000.00000 0 -11160091.933 15520102.888 16889234.721 10 0 60322 63900.00000 0 -12756194.034 16625685.533 14541256.748 10 0 60322 64800.00000 0 -14017913.613 17667203.071 11910775.868 10 0 60322 65700.00000 0 -14938449.157 18584390.616 9048840.202 10 0 60322 66600.00000 0 -15523964.747 19318821.618 6011024.409 10 0 60322 67500.00000 0 -15793093.910 19816470.512 2856350.645 10 0 60322 68400.00000 0 -15775927.522 20030110.072 -353860.474 10 0 60322 69300.00000 0 -15512528.852 19921441.355 -3557186.217 10 0 60322 70200.00000 0 -15051039.070 19462865.221 -6691321.476 10 0 60322 71100.00000 0 -14445454.005 18638819.406 -9695297.448 10 0 60322 72000.00000 0 -13753166.990 17446623.482 -12510674.582 10 0 60322 72900.00000 0 -13032382.614 15896794.926 -15082685.775 10 0 60322 73800.00000 0 -12339511.608 14012821.934 -17361306.905 10 0 60322 74700.00000 0 -11726657.787 11830401.673 -19302233.310 10 0 60322 75600.00000 0 -11239303.841 9396175.220 -20867743.026 10 0 60322 76500.00000 0 -10914294.114 6766011.635 -22027429.990 10 0 60322 77400.00000 0 -10778199.711 4002912.476 -22758793.168 10 0 60322 78300.00000 0 -10846134.889 1174623.854 -23047670.544 10 0 60322 79200.00000 0 -11121074.453 -1648944.853 -22888510.015 10 0 60322 80100.00000 0 -11593700.688 -4398388.552 -22284472.395 10 0 60322 81000.00000 0 -12242785.943 -7007449.864 -21247364.959 10 0 60322 81900.00000 0 -13036094.463 -9415529.145 -19797407.163 10 0 60322 82800.00000 0 -13931765.249 -11569957.554 -17962833.302 10 0 60322 83700.00000 0 -14880117.443 -13427939.558 -15779339.962 10 0 60322 84600.00000 0 -15825802.080 -14958085.180 -13289389.037 10 0 60322 85500.00000 0 -16710209.380 -16141469.333 -10541379.899 10 0 60323 0.00000 0 -17474029.968 -16972175.429 -7588707.109 10 0 60323 900.00000 0 -18059862.349 -17457302.389 -4488720.437 10 0 60323 1800.00000 0 -18414755.600 -17616435.247 -1301611.560 10 0 60323 2700.00000 0 -18492581.342 -17480604.520 1910756.024 10 0 60323 3600.00000 0 -18256133.830 -17090778.246 5086047.048 10 0 60323 4500.00000 0 -17678869.933 -16495951.761 8162662.537 10 0 60323 5400.00000 0 -16746215.495 -15750916.503 11080932.092 10 0 60323 6300.00000 0 -15456382.793 -14913802.358 13784267.395 10 0 60323 7200.00000 0 -13820664.373 -14043497.442 16220254.702 10 0 60323 8100.00000 0 -11863190.336 -13197053.962 18341665.617 10 0 60323 9000.00000 0 -9620158.460 -12427189.133 20107367.136 10 0 60323 9900.00000 0 -7138568.384 -11779985.924 21483113.950 10 0 60323 10800.00000 0 -4474511.482 -11292889.824 22442208.395 10 0 60323 11700.00000 0 -1691086.317 -10993085.370 22966015.868 10 0 60323 12600.00000 0 1143975.038 -10896320.325 23044326.189 10 0 60323 13500.00000 0 3960872.671 -11006226.753 22675554.124 10 0 60323 14400.00000 0 6690391.427 -11314167.635 21866775.127 10 0 60323 15300.00000 0 9266531.586 -11799615.871 20633595.208 10 0 60323 16200.00000 0 11629009.538 -12431050.330 18999856.805 10 0 60323 17100.00000 0 13725525.461 -13167332.088 16997185.479 10 0 60323 18000.00000 0 15513704.301 -13959503.694 14664385.241 10 0 60323 18900.00000 0 16962629.633 -14752936.474 12046693.266 10 0 60323 19800.00000 0 18053906.678 -15489735.875 9194907.560 10 0 60323 20700.00000 0 18782210.159 -16111303.616 6164403.919 10 0 60323 21600.00000 0 19155294.223 -16560948.379 3014060.928 10 0 60323 22500.00000 0 19193464.203 -16786434.256 -194886.148 10 0 60323 23400.00000 0 18928532.773 -16742358.462 -3400039.918 10 0 60323 24300.00000 0 18402304.925 -16392256.710 -6539060.066 10 0 60323 25200.00000 0 17664656.300 -15710346.025 -9550882.698 10 0 60323 26100.00000 0 16771286.726 -14682830.035 -12376915.193 10 0 60323 27000.00000 0 15781244.652 -13308710.318 -14962182.490 10 0 60323 27900.00000 0 14754327.839 -11600068.365 -17256401.778 10 0 60323 28800.00000 0 13748470.820 -9581805.160 -19214964.159 10 0 60323 29700.00000 0 12817229.949 -7290848.401 -20799803.919 10 0 60323 30600.00000 0 12007472.514 -4774859.761 -21980138.515 10 0 60323 31500.00000 0 11357367.440 -2090495.669 -22733065.077 10 0 60323 32400.00000 0 10894762.124 698706.282 -23044002.238 10 0 60323 33300.00000 0 10636013.362 3524727.674 -22906969.169 10 0 60323 34200.00000 0 10585321.112 6317656.833 -22324696.883 10 0 60323 35100.00000 0 10734592.443 9008356.455 -21308570.094 10 0 60323 36000.00000 0 11063840.776 11531100.957 -19878401.096 10 0 60323 36900.00000 0 11542102.890 13826074.509 -18062040.295 10 0 60323 37800.00000 0 12128834.508 15841626.630 -15894831.083 10 0 60323 38700.00000 0 12775725.099 17536192.370 -13418919.692 10 0 60323 39600.00000 0 13428854.965 18879798.075 -10682433.480 10 0 60323 40500.00000 0 14031103.238 19855091.094 -7738543.641 10 0 60323 41400.00000 0 14524704.903 20457851.642 -4644430.627 10 0 60323 42300.00000 0 14853848.645 20696966.759 -1460172.525 10 0 60323 43200.00000 0 14967205.635 20593868.758 1752421.812 10 0 60323 44100.00000 0 14820282.336 20181463.039 4931012.059 10 0 60323 45000.00000 0 14377497.820 19502591.460 8013934.640 10 0 60323 45900.00000 0 13613897.776 18608096.794 10941396.355 10 0 60323 46800.00000 0 12516432.670 17554570.370 13656630.336 10 0 60323 47700.00000 0 11084745.862 16401878.049 16106992.081 10 0 60323 48600.00000 0 9331437.958 15210568.630 18244974.743 10 0 60323 49500.00000 0 7281795.503 14039273.442 20029124.585 10 0 60323 50400.00000 0 4972994.386 12942205.952 21424839.445 10 0 60323 51300.00000 0 2452809.977 11966865.767 22405035.517 10 0 60323 52200.00000 0 -222113.612 11152042.726 22950670.117 10 0 60323 53100.00000 0 -2988364.616 10526204.195 23051110.787 10 0 60323 54000.00000 0 -5778149.268 10106332.687 22704343.849 10 0 60323 54900.00000 0 -8521864.490 9897262.225 21917018.292 10 0 60323 55800.00000 0 -11150752.154 9891541.252 20704323.815 10 0 60323 56700.00000 0 -13599525.960 10069827.944 19089704.715 10 0 60323 57600.00000 0 -15808862.736 10401801.698 17104414.335 10 0 60323 58500.00000 0 -17727655.211 10847552.889 14786917.705 10 0 60323 59400.00000 0 -19314932.874 11359392.877 12182152.989 10 0 60323 60300.00000 0 -20541370.960 11884008.342 9340665.162 10 0 60323 61200.00000 0 -21390324.520 12364869.225 6317628.093 10 0 60323 62100.00000 0 -21858344.237 12744788.474 3171773.669 10 0 60323 63000.00000 0 -21955152.291 12968524.966 -35751.293 10 0 60323 63900.00000 0 -21703079.368 12985318.784 -3242577.782 10 0 60323 64800.00000 0 -21135986.684 12751250.567 -6386333.191 10 0 60323 65700.00000 0 -20297718.842 12231323.893 -9405861.314 10 0 60323 66600.00000 0 -19240153.285 11401181.277 -12242419.066 10 0 60323 67500.00000 0 -18020929.290 10248379.901 -14840825.791 10 0 60323 68400.00000 0 -16700953.007 8773171.853 -17150542.099 10 0 60323 69300.00000 0 -15341784.434 6988754.746 -19126656.635 10 0 60323 70200.00000 0 -14003017.034 4920981.062 -20730761.364 10 0 60323 71100.00000 0 -12739760.699 2607537.392 -21931698.326 10 0 60323 72000.00000 0 -11600334.145 96627.174 -22706163.508 10 0 60323 72900.00000 0 -10624263.602 -2554788.706 -23039156.513 10 0 60323 73800.00000 0 -9840671.517 -5283120.632 -22924267.750 10 0 60323 74700.00000 0 -9267122.289 -8020560.055 -22363798.044 10 0 60323 75600.00000 0 -8908972.699 -10697670.542 -21368708.811 10 0 60323 76500.00000 0 -8759253.324 -13246052.801 -19958404.109 10 0 60323 77400.00000 0 -8799084.928 -15600973.296 -18160349.050 10 0 60323 78300.00000 0 -8998611.290 -17703847.724 -16009532.131 10 0 60323 79200.00000 0 -9318408.268 -19504476.637 -13547781.967 10 0 60323 80100.00000 0 -9711308.884 -20962940.809 -10822951.734 10 0 60323 81000.00000 0 -10124566.764 -22051078.194 -7887987.222 10 0 60323 81900.00000 0 -10502266.030 -22753481.743 -4799896.608 10 0 60323 82800.00000 0 -10787875.390 -23067977.428 -1618642.165 10 0 60323 83700.00000 0 -10926838.160 -23005563.537 1594024.421 10 0 60323 84600.00000 0 -10869088.473 -22589814.933 4775760.321 10 0 60323 85500.00000 0 -10571387.106 -21855778.270 7864839.935 10 0 60324 0.00000 0 -9999378.134 -20848405.597 10801349.577 10 0 60324 900.00000 0 -9129278.971 -19620592.232 13528346.897 10 0 60324 1800.00000 0 -7949133.030 -18230903.169 15992958.821 10 0 60324 2700.00000 0 -6459570.762 -16741081.850 18147402.371 10 0 60324 3600.00000 0 -4674047.028 -15213446.968 19949905.180 10 0 60324 4500.00000 0 -2618543.686 -13708285.625 21365510.088 10 0 60324 5400.00000 0 -330748.638 -12281351.502 22366748.689 10 0 60324 6300.00000 0 2141255.781 -10981572.107 22934171.422 10 0 60324 7200.00000 0 4740741.944 -9849060.254 23056724.402 10 0 60324 8100.00000 0 7404452.454 -8913512.243 22731965.995 10 0 60324 9000.00000 0 10064995.720 -8193059.147 21966118.855 10 0 60324 9900.00000 0 12653423.527 -7693618.825 20773956.131 10 0 60324 10800.00000 0 15101884.834 -7408775.561 19178523.385 10 0 60324 11700.00000 0 17346246.557 -7320192.296 17210700.759 10 0 60324 12600.00000 0 19328572.981 -7398538.241 14908612.931 10 0 60324 13500.00000 0 20999360.995 -7604892.993 12316897.264 10 0 60324 14400.00000 0 22319438.023 -7892568.192 9485843.478 10 0 60324 15300.00000 0 23261443.215 -8209269.908 6470420.875 10 0 60324 16200.00000 0 23810829.686 -8499510.297 3329211.619 10 0 60324 17100.00000 0 23966345.489 -8707166.176 123270.744 10 0 60324 18000.00000 0 23739972.901 -8778075.564 -3085064.645 10 0 60324 18900.00000 0 23156328.470 -8662561.377 -6233393.244 10 0 60324 19800.00000 0 22251549.164 -8317774.241 -9260470.049 10 0 60324 20700.00000 0 21071711.801 -7709753.984 -12107404.830 10 0 60324 21600.00000 0 19670852.804 -6815121.219 -14718814.373 10 0 60324 22500.00000 0 18108672.213 -5622326.144 -17043905.387 10 0 60324 23400.00000 0 16448019.263 -4132400.569 -19037466.368 10 0 60324 24300.00000 0 14752265.834 -2359180.226 -20660748.886 10 0 60324 25200.00000 0 13082678.579 -328986.947 -21882221.095 10 0 60324 26100.00000 0 11495900.338 1920216.923 -22678178.981 10 0 60324 27000.00000 0 10041646.401 4340167.269 -23033203.872 10 0 60324 27900.00000 0 8760711.868 6874074.855 -22940457.774 10 0 60324 28800.00000 0 7683372.980 9458766.299 -22401811.284 10 0 60324 29700.00000 0 6828248.468 12027100.624 -21427802.086 10 0 60324 30600.00000 0 6201667.550 14510561.242 -20037425.180 10 0 60324 31500.00000 0 5797569.798 16841915.832 -18257759.175 10 0 60324 32400.00000 0 5597939.781 18957833.858 -16123436.082 10 0 60324 33300.00000 0 5573756.905 20801353.157 -13675964.920 10 0 60324 34200.00000 0 5686419.270 22324093.309 -10962922.356 10 0 60324 35100.00000 0 5889580.468 23488124.057 -8037026.087 10 0 60324 36000.00000 0 6131320.928 24267411.425 -4955109.045 10 0 60324 36900.00000 0 6356561.365 24648781.807 -1777014.485 10 0 60324 37800.00000 0 6509615.756 24632364.532 1435566.417 10 0 60324 38700.00000 0 6536775.486 24231495.218 4620291.699 10 0 60324 39600.00000 0 6388815.063 23472084.805 7715377.031 10 0 60324 40500.00000 0 6023313.247 22391481.511 10660791.873 10 0 60324 41400.00000 0 5406691.273 21036874.080 13399420.218 10 0 60324 42300.00000 0 4515881.908 19463303.706 15878163.556 10 0 60324 43200.00000 0 3339558.541 17731368.171 18048965.061 10 0 60324 44100.00000 0 1878872.042 15904714.263 19869735.712 10 0 60324 45000.00000 0 147663.606 14047423.114 21305165.006 10 0 60324 45900.00000 0 -1827856.398 12221397.201 22327401.271 10 0 60324 46800.00000 0 -4009951.463 10483857.459 22916589.065 10 0 60324 47700.00000 0 -6350690.151 8885054.161 23061253.714 10 0 60324 48600.00000 0 -8793711.608 7466286.254 22758525.848 10 0 60324 49500.00000 0 -11276353.556 6258310.996 22014201.572 10 0 60324 50400.00000 0 -13732055.766 5280209.588 20842636.781 10 0 60324 51300.00000 0 -16092940.486 4538755.674 19266477.088 10 0 60324 52200.00000 0 -18292463.588 4028312.678 17316227.722 10 0 60324 53100.00000 0 -20268026.877 3731264.095 15029670.809 10 0 60324 54000.00000 0 -21963443.170 3618958.481 12451140.303 10 0 60324 54900.00000 0 -23331151.383 3653129.333 9630667.728 10 0 60324 55800.00000 0 -24334088.880 3787729.895 6623014.644 10 0 60324 56700.00000 0 -24947142.301 3971105.228 3486610.192 10 0 60324 57600.00000 0 -25158115.566 4148409.321 282414.279 10 0 60324 58500.00000 0 -24968173.861 4264164.378 -2927271.205 10 0 60324 59400.00000 0 -24391744.551 4264853.008 -6080019.480 10 0 60324 60300.00000 0 -23455878.903 4101432.526 -9114499.840 10 0 60324 61200.00000 0 -22199101.433 3731663.596 -11971677.818 10 0 60324 62100.00000 0 -20669795.449 3122153.368 -14595970.331 10 0 60324 63000.00000 0 -18924193.046 2250025.315 -16936332.580 10 0 60324 63900.00000 0 -17024054.509 1104143.956 -18947254.947 10 0 60324 64800.00000 0 -15034135.074 -314158.449 -20589650.211 10 0 60324 65700.00000 0 -13019545.742 -1990884.930 -21831613.772 10 0 60324 66600.00000 0 -11043119.041 -3899715.831 -22649042.253 10 0 60324 67500.00000 0 -9162890.037 -6002876.335 -23026098.849 10 0 60324 68400.00000 0 -7429797.724 -8252493.910 -22955516.839 10 0 60324 69300.00000 0 -5885702.343 -10592389.523 -22438735.849 10 0 60324 70200.00000 0 -4561800.643 -12960228.353 -21485868.708 10 0 60324 71100.00000 0 -3477504.205 -15289940.746 -20115499.906 10 0 60324 72000.00000 0 -2639826.419 -17514312.819 -18354319.822 10 0 60324 72900.00000 0 -2043302.307 -19567639.065 -16236602.022 10 0 60324 73800.00000 0 -1670442.985 -21388326.700 -13803533.799 10 0 60324 74700.00000 0 -1492704.204 -22921343.397 -11102413.037 10 0 60324 75600.00000 0 -1471926.778 -24120406.584 -8185727.001 10 0 60324 76500.00000 0 -1562186.989 -24949823.266 -5110130.990 10 0 60324 77400.00000 0 -1711977.817 -25385903.833 -1935346.840 10 0 60324 78300.00000 0 -1866628.044 -25417891.249 1276997.164 10 0 60324 79200.00000 0 -1970856.305 -25048367.259 4464562.292 10 0 60324 80100.00000 0 -1971351.648 -24293119.176 7565507.822 10 0 60324 81000.00000 0 -1819271.127 -23180473.411 10519688.405 10 0 60324 81900.00000 0 -1472548.653 -21750124.130 13269817.146 10 0 60324 82800.00000 0 -897917.342 -20051506.483 15762571.972 10 0 60324 83700.00000 0 -72559.800 -18141782.625 17949624.224 10 0 60324 84600.00000 0 1014683.594 -16083524.680 19788570.055 10 0 60324 85500.00000 0 2362599.812 -13942191.181 21243747.220 10 0 60325 0.00000 0 3957412.406 -11783501.931 22286922.060 10 0 60325 900.00000 0 5773124.838 -9670818.868 22897834.507 10 0 60325 1800.00000 0 7772382.697 -7662644.104 23064589.759 10 0 60325 2700.00000 0 9907823.132 -5810334.542 22783891.205 10 0 60325 3600.00000 0 12123854.794 -4156130.192 22061108.605 10 0 60325 4500.00000 0 14358796.451 -2731576.325 20910180.527 10 0 60325 5400.00000 0 16547286.550 -1556404.675 19353352.271 10 0 60325 6300.00000 0 18622864.582 -637919.749 17420753.491 10 0 60325 7200.00000 0 20520617.536 29084.548 15149822.775 10 0 60325 8100.00000 0 22179781.605 461874.873 12584589.319 10 0 60325 9000.00000 0 23546190.647 688814.191 9774824.725 10 0 60325 9900.00000 0 24574468.801 747924.134 6775080.674 10 0 60325 10800.00000 0 25229874.966 685034.940 3643630.759 10 0 60325 11700.00000 0 25489721.114 551601.537 441336.882 10 0 60325 12600.00000 0 25344304.131 402278.731 -2769537.440 10 0 60325 13500.00000 0 24797311.314 292358.938 -5926543.271 10 0 60325 14400.00000 0 23865681.844 275181.976 -8968267.561 10 0 60325 15300.00000 0 22578929.652 399627.748 -11835534.888 10 0 60325 16200.00000 0 20977955.971 707799.236 -14472565.380 10 0 60325 17100.00000 0 19113401.472 1232995.119 -16828065.549 10 0 60325 18000.00000 0 17043607.439 1998058.977 -18856230.170 10 0 60325 18900.00000 0 14832271.771 3014175.922 -20517635.416 10 0 60325 19800.00000 0 12545898.387 4280168.482 -21780005.798 10 0 60325 20700.00000 0 10251147.002 5782322.277 -22618840.113 10 0 60325 21600.00000 0 8012194.158 7494749.628 -23017884.631 10 0 60325 22500.00000 0 5888215.530 9380276.550 -22969444.755 10 0 60325 23400.00000 0 3931094.164 11391816.530 -22474529.617 10 0 60325 24300.00000 0 2183449.486 13474174.095 -21542827.262 10 0 60325 25200.00000 0 677068.281 15566203.202 -20192511.307 10 0 60325 26100.00000 0 -568198.174 17603230.596 -18449883.110 10 0 60325 27000.00000 0 -1545026.238 19519643.189 -16348856.553 10 0 60325 27900.00000 0 -2258678.175 21251531.645 -13930295.533 10 0 60325 28800.00000 0 -2726525.788 22739279.880 -11241217.070 10 0 60325 29700.00000 0 -2977061.079 23929992.424 -8333875.534 10 0 60325 30600.00000 0 -3048437.051 24779658.312 -5264745.793 10 0 60325 31500.00000 0 -2986601.484 25254961.126 -2093425.211 10 0 60325 32400.00000 0 -2843103.537 25334659.653 1118524.077 10 0 60325 33300.00000 0 -2672666.706 25010481.580 4308769.916 10 0 60325 34200.00000 0 -2530631.363 24287493.112 7415418.539 10 0 60325 35100.00000 0 -2470375.455 23183929.322 10378213.049 10 0 60325 36000.00000 0 -2540822.657 21730492.596 13139698.756 10 0 60325 36900.00000 0 -2784143.448 19969148.728 15646332.903 10 0 60325 37800.00000 0 -3233746.289 17951471.052 17849517.608 10 0 60325 38700.00000 0 -3912643.804 15736601.607 19706536.533 10 0 60325 39600.00000 0 -4832263.087 13388914.104 21181377.731 10 0 60325 40500.00000 0 -5991750.702 10975475.521 22245427.420 10 0 60325 41400.00000 0 -7377802.301 8563411.261 22878021.919 10 0 60325 42300.00000 0 -8965025.090 6217282.607 23066847.546 10 0 60325 43200.00000 0 -10716819.226 3996584.535 22808181.067 10 0 60325 44100.00000 0 -12586742.749 1953466.853 22106966.057 10 0 60325 45000.00000 0 -14520304.577 130772.512 20976723.435 10 0 60325 45900.00000 0 -16457112.152 -1439526.204 19439297.342 10 0 60325 46800.00000 0 -18333285.414 -2737429.232 17524440.482 10 0 60325 47700.00000 0 -20084037.318 -3755502.674 15269246.013 10 0 60325 48600.00000 0 -21646313.739 -4498940.822 12717436.012 10 0 60325 49500.00000 0 -22961382.652 -4985094.141 9918519.378 10 0 60325 50400.00000 0 -23977264.030 -5242483.368 6926834.823 10 0 60325 51300.00000 0 -24650898.134 -5309341.690 3800497.052 10 0 60325 52200.00000 0 -24949960.464 -5231746.924 600266.484 10 0 60325 53100.00000 0 -24854246.159 -5061423.233 -2611635.274 10 0 60325 54000.00000 0 -24356564.707 -4853306.099 -5772740.662 10 0 60325 54900.00000 0 -23463106.390 -4662974.549 -8821557.755 10 0 60325 55800.00000 0 -22193264.267 -4544060.411 -11698773.511 10 0 60325 56700.00000 0 -20578918.624 -4545745.464 -14348414.409 10 0 60325 57600.00000 0 -18663213.620 -4710453.561 -16718941.130 10 0 60325 58500.00000 0 -16498877.339 -5071836.508 -18764255.329 10 0 60325 59400.00000 0 -14146155.782 -5653139.819 -20444598.601 10 0 60325 60300.00000 0 -11670447.362 -6466018.289 -21727326.038 10 0 60325 61200.00000 0 -9139737.031 -7509852.053 -22587539.501 10 0 60325 62100.00000 0 -6621937.186 -8771592.634 -23008568.608 10 0 60325 63000.00000 0 -4182246.133 -10226145.966 -22982290.587 10 0 60325 63900.00000 0 -1880633.896 -11837276.789 -22509283.238 10 0 60325 64800.00000 0 230440.560 -13558996.864 -21598808.544 10 0 60325 65700.00000 0 2107986.499 -15337379.153 -20268627.600 10 0 60325 66600.00000 0 3720032.579 -17112722.262 -18544650.780 10 0 60325 67500.00000 0 5046708.750 -18821974.719 -16460430.094 10 0 60325 68400.00000 0 6080815.294 -20401317.797 -14056503.666 10 0 60325 69300.00000 0 6827856.912 -21788798.824 -11379605.138 10 0 60325 70200.00000 0 7305542.165 -22926904.773 -8481753.364 10 0 60325 71100.00000 0 7542770.971 -23764968.370 -5419240.108 10 0 60325 72000.00000 0 7578154.278 -24261305.884 -2251535.553 10 0 60325 72900.00000 0 7458129.639 -24384997.001 959866.994 10 0 60325 73800.00000 0 7234753.287 -24117232.213 4152644.594 10 0 60325 74700.00000 0 6963262.810 -23452171.262 7264852.976 10 0 60325 75600.00000 0 6699513.976 -22397276.713 10236126.106 10 0 60325 76500.00000 0 6497400.409 -20973108.706 13008843.747 10 0 60325 77400.00000 0 6406365.266 -19212589.452 15529244.496 10 0 60325 78300.00000 0 6469110.071 -17159768.053 17748463.054 10 0 60325 79200.00000 0 6719597.324 -14868136.966 19623472.118 10 0 60325 80100.00000 0 7181431.153 -12398569.843 21117911.273 10 0 60325 81000.00000 0 7866684.329 -9816966.000 22202787.472 10 0 60325 81900.00000 0 8775221.356 -7191698.676 22857034.236 10 0 60325 82800.00000 0 9894546.733 -4590972.191 23067919.229 10 0 60325 83700.00000 0 11200185.616 -2080196.702 22831292.662 10 0 60325 84600.00000 0 12656582.155 280511.537 22151671.763 10 0 60325 85500.00000 0 14218479.156 2438601.626 21042159.416 99